Weather History for CWXA - July, 2013

Change the Weather History Date:

Thursday, July 25, 2013

  Actual Average Record
Temperature  
Mean Temperature 63 °F -  
Max Temperature 70 °F - - ()
Min Temperature 56 °F - - ()
Degree Days  
Heating Degree Days 2    
Growing Degree Days 13 (Base 50)    
Moisture  
Dew Point 55 °F    
Average Humidity 81    
Maximum Humidity 93    
Minimum Humidity 60    
Precipitation  
Precipitation 0.08 in - - ()
Sea Level Pressure  
Sea Level Pressure 30.14 in    
Wind  
Wind Speed 3 mph ()    
Max Wind Speed 7 mph    
Max Gust Speed -    
T = Trace of Precipitation, MM = Missing Value Source: Averaged Metar Reports

Daily Weather History Graph

Daily Weather History Graph

Search for Another Location

Airport or City:

Trip Planner

Search our weather history database for the weather conditions in past years. The results will help you decide how hot, cold, wet, or windy it might be!

Date:

Astronomy

Jul. 25, 2013 Rise Set
Actual Time 5:56 AM MDT 9:36 PM MDT
Civil Twilight 5:14 AM MDT 10:17 PM MDT
Nautical Twilight 4:17 AM MDT 11:14 PM MDT
Astronomical Twilight 2:49 AM MDT 12:39 AM MDT
Moon 10:44 PM MDT (7/25) 10:01 AM MDT (7/25)
Length of Visible Light 17h 03m
Length of Day
15h 40m
Waning Gibbous, 88% of the Moon is Illuminated
Jul 25
Waning Gibbous
Jul 29
Last Quarter
Aug 6
New
Aug 14
First Quarter
Aug 20
Full

Hourly Weather History & Observations

Time (MDT) Temp. Dew Point Humidity Pressure Visibility Wind Dir Wind Speed Gust Speed Precip Events Conditions
12:00 AM 59 °F 55 °F 82% 30.17 in - NNE 3.5 mph - -  
12:00 AM 58.8 °F 55.0 °F 87% 30.17 in - NNE 3.5 mph - N/A   Unknown
1:00 AM 57.6 °F 54.7 °F 90% 30.18 in - NE 3.5 mph - N/A   Unknown
2:00 AM 57.4 °F 54.3 °F 90% 30.18 in - NNE 2.3 mph - N/A   Unknown
3:00 AM 57.0 °F 54.0 °F 89% 30.17 in - ENE 2.3 mph - N/A   Unknown
4:00 AM 56.7 °F 54.0 °F 91% 30.19 in - NNW 1.2 mph - N/A   Unknown
5:00 AM 57.0 °F 54.1 °F 90% 30.17 in - NNE 1.2 mph - N/A   Unknown
6:00 AM 57 °F 54 °F 87% 30.17 in - NNW 1.2 mph - -  
6:00 AM 56.8 °F 54.1 °F 91% 30.17 in - NNW 1.2 mph - N/A   Unknown
7:00 AM 56.5 °F 53.6 °F 90% 30.17 in - NE 2.3 mph - N/A   Unknown
8:00 AM 57.7 °F 53.8 °F 87% 30.17 in - NE 2.3 mph - N/A   Unknown
9:00 AM 61.5 °F 54.3 °F 77% 30.16 in - East 2.3 mph - N/A   Unknown
10:00 AM 62.2 °F 54.3 °F 75% 30.16 in - ENE 2.3 mph - N/A   Unknown
11:00 AM 63.3 °F 53.4 °F 70% 30.14 in - NNE 3.5 mph - N/A   Unknown
12:00 PM 67.3 °F 53.1 °F 60% 30.13 in - NNE 4.6 mph - N/A   Unknown
1:00 PM 67.3 °F 55.6 °F 66% 30.12 in - ENE 6.9 mph - N/A   Unknown
2:00 PM 67.5 °F 55.9 °F 66% 30.12 in - ENE 5.8 mph - N/A   Unknown
3:00 PM 66.6 °F 56.8 °F 71% 30.12 in - NE 5.8 mph - N/A   Unknown
4:00 PM 63.3 °F 55.9 °F 77% 30.13 in - NNE 5.8 mph - N/A   Unknown
5:00 PM 62.6 °F 56.1 °F 79% 30.12 in - NNE 4.6 mph - N/A   Unknown
6:00 PM 63 °F 56 °F 72% 30.11 in - North 3.5 mph - -  
6:00 PM 63.3 °F 56.1 °F 77% 30.11 in - North 3.5 mph - N/A   Unknown
7:00 PM 63.1 °F 56.3 °F 78% 30.10 in - North 3.5 mph - N/A   Unknown
8:00 PM 62.1 °F 56.3 °F 81% 30.10 in - NNE 2.3 mph - N/A   Unknown
9:00 PM 60.1 °F 57.6 °F 91% 30.10 in - NNW 2.3 mph - 0.06 in   Unknown
10:00 PM 58.8 °F 56.8 °F 93% 30.11 in - North 1.2 mph - N/A   Unknown
11:00 PM 58.6 °F 56.5 °F 93% 30.10 in - WNW 1.2 mph - N/A   Unknown